Location: Cabeza de los Veneras
(40.2000°N, 5.2000°W)
Time: 12:24:25
(UTC+00:00)

Cosmos 1782 Rocket - Pass Details

Date: 18 April 2024
Orbit: 604 x 628 km, 82.5° (Epoch: 26 May)

Event Time Altitude Azimuth Distance (km) Brightness Sun altitude
Rises 19:26:01 0° 183° (S) 2,862 6.8 -5.0°
Reaches altitude 10° 19:28:13 10° 181° (S) 1,966 6.0 -5.4°
Maximum altitude 19:32:34 78° 96° (E) 637 3.5 -6.2°
Drops below altitude 10° 19:36:59 10° 11° (N) 1,997 6.3 -7.0°
Sets 19:39:14 0° 10° (N) 2,912 7.2 -7.4°
